THORAD AGENA D DEB, 21721

Orbit data source: Space-Track

THORAD AGENA D DEB, 21721 is space debris in SSO originally from a launch on Wed, 08 Apr 1970 UTC launched from the Air Force Western Test Range (AFWTR). Debris objects in space refer to the collection of defunct objects orbiting the Earth. Examples of debris include non-operational satellites, rocket bodies, and fragments generated from explosions, collisions, or faulty payload assembly.

Loading next visibility...
Identifier
21721, 1970-025QG
Orbit
SSO
Country
Flag of USUS
Related business
Manufacturer
Unknown
Mission
Spacecraft
Bus & Motor
Unknown
Mass
Unknown
Launch date (UTC)
1970-04-08 (56 years ago)
Launch vehicle
Unknown
Launch site
Air Force Western Test Range (AFWTR)
Object type
Payload
Rocket body
Debris
Shape & HBR
Unknown shape, 0.1 m
Radar Cross Section
Small (<0.1 m²)

Expand to show TLE details & history
Last TLE update: 2 days ago

TLE from 2 days ago
0 THORAD AGENA D DEB
1 21721U 70025QG  26131.35777575  .00000716  00000-0  85382-3 0  9999
2 21721 100.1110  80.9628 0005942  17.6857 133.9254 13.71190436719151
Epoch: 2026-05-11T08:35Z
TLE epoch observation values (Epoch: 2026-05-11T08:35:11.824Z)
Latitude
27.90363°
Longitude
-91.59361°
Altitude
1,001.666 km
Speed
7.352 km/s
True Right ascension
17h 45m 24s
True Declination
27° 45' 59"
Sunlit
Object was in full shadow at epoch
Visualization orbit readout
Latitude
Unknown
Longitude
Unknown
Altitude
Unknown
Speed
Unknown
Apparent Right ascension
Unknown
Apparent Declination
Unknown
Sunlit
N/A
Visualization observer readout
Local Sidereal Time
15:27:12
Azimuth
Unknown
Elevation
Unknown
Doppler factor
Unknown
Orbital elements
Apogee altitude
996.975 km
Perigee altitude
988.216 km
Semi-major axis
7,370.732 km
Eccentricity
0.00059
Inclination
100.111°
RAAN
80.9628°
Arg. of periapsis
17.6857°
True anomaly
133.97442°
Mean anomaly
133.9254°
Eccentric anomaly
133.94991°
Mean motion
3.42987 °/min
Orbital period
104.96 mins
BSTAR
0.00085382

Documentation

Showing up to 5 results
|